Regional Weather Roundup
Issued by NWS

Home | Current Version | Previous Version | Text Only | Print | Product List | Glossary On
Versions: 1 2 3 4 5 6 7 8 9 10 11 12 13 14 15 16 17 18 19 20 21 22 23 24 25 26 27 28
000
ASUS42 KTBW 290216
RWRFL
FLORIDA REGIONAL WEATHER ROUNDUP
NATIONAL WEATHER SERVICE TAMPA BAY RUSKIN FL
1000 PM EDT SUN AUG 28 2016

NOTE: "FAIR" INDICATES FEW OR NO CLOUDS BELOW 12,000 FEET WITH NO
SIGNIFICANT WEATHER AND/OR OBSTRUCTIONS TO VISIBILITY.

FLZ001>010-012>015-112-114-115-290300-
PANHANDLE FLORIDA

CITY           SKY/WX    TMP DP  RH WIND       PRES   REMARKS
PENSACOLA      CLOUDY    82  76  81 CALM      29.98R
PENSACOLA NAS  CLOUDY    81  76  84 N5        29.97R
MILTON NAS     CLOUDY    77  76  96 N5        29.99
CRESTVIEW      MOCLDY    79  75  87 SE5       30.01R
DUKE FIELD     FAIR      77  74  88 SE6       30.00R
VALPARAISO     MOCLDY    82  74  77 E6        30.00R
MARY ESTHER    PTCLDY    80  73  79 E6        29.98R
TRI COUNTY     CLOUDY    80  77  90 CALM      30.01R
PANAMA CITY    MOCLDY    78  75  90 N3        29.98R
TYNDALL AFB    PTCLDY    80  77  92 NW3       29.96S
APALACHICOLA   CLOUDY    82  78  88 NE3       29.97R

STATION/POSITION SKY/WX   TEMP    WIND        PRES    WAVE   SWELL
                          AIR SEA DIR/SP/G            HT/PER HT/PER
                          (F)     (DEG/KT/KT) (MB)    (FT/S) (FT/S)
30.1N   87.6W              85 86   60/ 10/ 12 1014.7R   3/ 5   2/ 5
29.2N   88.2W              82 86   50/ 12/ 14 1013.3S
28.8N   86.0W              85 85   80/ 12/ 14 1014.2R   3/ 6   2/ 6
PANAMA CITY BEAC           78 87              1015.3F
TOWER C                    86      70/ 13/ 15 1015.3R
28.5N   84.5W              84 86   80/  2/  6 1014.0R   3/ 5   2/ 5

$$
FLZ011-016>038-118-127-128-134-139-239-290300-
NORTH FLORIDA

CITY           SKY/WX    TMP DP  RH WIND       PRES   REMARKS
MARIANNA       PTCLDY    81  73  76 NE3       29.99R
TALLAHASSEE    PTCLDY    85  71  63 E8        30.00R
PERRY          CLEAR     82  71  70 NE3       30.01R
CROSS CITY     CLEAR     81  72  74 E5        29.99R
LAKE CITY      FAIR      79  73  83 E3        30.02R
GAINESVILLE    CLEAR     79  72  79 NE7       30.00R
MAYPORT NAS    PTCLDY    82  75  79 E13       30.03R
JACKSONVILLE   PTCLDY    81  77  88 E7        30.03R
JAX NAS        PTCLDY    85  75  72 NE8       30.03R
FERNANDINA BEA FAIR      86  77  74 E10       30.03R HX  97
ST AUGUSTINE   PTCLDY    82  77  84 NE8       30.02R

STATION/POSITION SKY/WX   TEMP    WIND        PRES    WAVE   SWELL
                          AIR SEA DIR/SP/G            HT/PER HT/PER
                          (F)     (DEG/KT/KT) (MB)    (FT/S) (FT/S)
SHELL POINT                83     270/  1/  2 1013.6
KEATON BEACH               82      60/  8/ 11 1015.2R
CEDAR KEY                  83      70/ 15/ 17 1015.4R
FERNANDINA                 83 86              1016.1R
30.7N   81.3W                 85                N/A     4/ 9
MAYPORT                    83 85              1016.4R
31.4N   80.9W              83 85   60/ 14/ 16 1017.4R   3/ 9   2/ 9
ST AUGUSTINE               83 85   70/ 11/ 13 1017.1R

$$
FLZ040-043>046-052-053-057-058-063-144-290300-
INTERIOR CENTRAL FLORIDA

CITY           SKY/WX    TMP DP  RH WIND       PRES   REMARKS
OCALA          CLEAR     82  72  69 NE7       30.00R
THE VILLAGES     N/A     82  77  83 MISG      29.89R
LEESBURG       CLEAR     81  75  82 NE7       29.99R
SANFORD        CLOUDY    80  76  87 NE6       29.98R
ORLANDO EXEC   CLEAR     79  76  90 NE5       29.98R
ORLANDO INTL   PTCLDY    80  74  81 E8        29.98R
KISSIMMEE      PTCLDY    81  76  84 E9        29.98R
WINTER HAVEN   CLEAR     81  74  79 NE3       29.98R
LAKELAND       CLEAR     81  75  83 E7        29.96R
BARTOW         FAIR      79  77  94 NE8       29.97R
OKEECHOBEE     CLEAR     77  75  94 CALM      29.96R

$$
FLZ041-047-054-059-064-141-147-290300-
EAST CENTRAL FLORIDA

CITY           SKY/WX    TMP DP  RH WIND       PRES   REMARKS
DAYTONA BEACH  MOCLDY    83  77  82 E9        30.00R
DELAND         CLOUDY    79  77  94 NE3       29.99R
NEW SMYRNA BEA PTCLDY    82  77  83 E12       29.99S
JFK SPACE CTR  CLEAR     80  74  83 E5        29.97R
CAPE CANAVERAL CLEAR     81  76  83 E5        29.96R
PATRICK AFB    CLEAR     83  78  83 E9        29.96R
MELBOURNE      PTCLDY    83  77  82 E10       29.96R
VERO BEACH     CLEAR     82  75  79 E5        29.96R
FT PIERCE      CLEAR     79  77  94 E3        29.95R
STUART         CLEAR     84  77  79 E12       29.96R

STATION/POSITION SKY/WX   TEMP    WIND        PRES    WAVE   SWELL
                          AIR SEA DIR/SP/G            HT/PER HT/PER
                          (F)     (DEG/KT/KT) (MB)    (FT/S) (FT/S)
28.5N   80.2W              83 83   80/  8/ 10 1014.9R
TRIDENT PIER               83 86              1014.8R
28.4N   80.5W                 85                N/A     3/ 5
27.5N   80.2W                 84                N/A     3/ 8

$$
FLZ050-056-061-142-242-148-248-149-249-151-251-155-255-
160-260-290300-
WEST CENTRAL FLORIDA

CITY           SKY/WX    TMP DP  RH WIND       PRES   REMARKS
CRYSTAL RIVER  FAIR      79  73  83 NE6       29.97R
INVERNESS      FAIR      79  75  89 NE5       29.98R
BROOKSVILLE    CLEAR     80  75  84 E9        29.97R
CLEARWATER AIR FAIR      79  77  94 CALM      29.94R
ST PETE CLEARW PTCLDY    83  77  82 E8        29.94R
TAMPA INTL     PTCLDY    83  76  79 NE5       29.95R
TAMPA EXEC     PTCLDY    81  77  89 E3        29.96R
PLANT CITY     CLEAR     82  77  83 E5        29.98R
MACDILL AFB    PTCLDY    81  79  96 E9        29.94R
PETER O KNIGHT PTCLDY    84  79  84 E9G16     29.95R HX  96
ST PETERSBURG  PTCLDY    84  76  76 E15       29.93R
SARASOTA       MOCLDY    84  73  69 E13       29.92R
VENICE         FAIR      82  75  78 E8        29.93R

STATION/POSITION SKY/WX   TEMP    WIND        PRES    WAVE   SWELL
                          AIR SEA DIR/SP/G            HT/PER HT/PER
                          (F)     (DEG/KT/KT) (MB)    (FT/S) (FT/S)
27.3N   84.2W                 86                N/A     3/ 5
CLEARWATER BEACH           82 87              1013.3S
MIDDLE TAMPA BAY                              1013.5R
VENICE                     82 84   80/  6/  8 1013.1R

$$
FLZ066-069-070-075>078-162-262-165-265-290300-
SOUTHWEST FLORIDA AND KEYS

CITY           SKY/WX    TMP DP  RH WIND       PRES   REMARKS
PUNTA GORDA    CLOUDY    80  75  84 E7        29.94R
FT MYERS       MOCLDY    81  75  82 E9        29.91R
SOUTHWEST INTL CLOUDY    81  74  79 E8        29.91S
NAPLES         CLOUDY    82  75  79 E10       29.90R
MARATHON       LGT RAIN  82  75  79 SE9G20    29.88R
KEY WEST NAS   CLOUDY    82  75  79 SE16G26   29.85R
KEY WEST INTL  MOCLDY    82  77  84 SE18      29.85S

STATION/POSITION SKY/WX   TEMP    WIND        PRES    WAVE   SWELL
                          AIR SEA DIR/SP/G            HT/PER HT/PER
                          (F)     (DEG/KT/KT) (MB)    (FT/S) (FT/S)
NAPLES                        87              1012.1R
26.0N   85.6W              85 86   50/ 16/ 19 1012.2R   3/ 6
DRY TORTUGAS               83     100/ 23/ 26 1009.9F
SAND KEY                   81     140/ 20/ 23 1010.7R
LONG KEY                   82 86  130/ 14/ 16 1012.4R
MOLASSES REEF                     150/ 12       N/A

$$
FLZ067-068-071>074-168-172>174-290300-
SOUTHEAST FLORIDA

CITY           SKY/WX    TMP DP  RH WIND       PRES   REMARKS
W PALM BEACH   TSTM      81  77  88 E6        29.95R
BOCA RATON     CLEAR     81  77  89 SE5       29.94R
FT LAUDER-EXEC PTCLDY    79  74  84 SE8       29.94R
FT LAUDERDALE  MOCLDY    82  76  81 E10       29.93R
POMPANO BEACH  CLEAR     82  76  81 SE9       29.94R
OPA LOCKA      MOCLDY    80  74  81 E8        29.94R
MIAMI          CLOUDY    82  75  79 E13       29.93R
WEST KENDALL   PTCLDY    82  75  79 E10       29.92R
HOMESTEAD      LGT RAIN  82  75  78 SE13      29.92R

STATION/POSITION SKY/WX   TEMP    WIND        PRES    WAVE   SWELL
                          AIR SEA DIR/SP/G            HT/PER HT/PER
                          (F)     (DEG/KT/KT) (MB)    (FT/S) (FT/S)
PORT EVERGLADES            81     110/  3/  9 1012.9R
VIRGINIA KEY               84 89              1013.2R
LAKE WORTH                 82 86              1013.2R
FOWEY ROCKS                83 85  110/ 17/ 18 1013.8R
SETTLEMENT POINT           82     110/  8/  9 1015.0R

$$





USA.gov is the U.S. government's official web portal to all federal, state and local government web resources and services.